#timestamp,LO_Frequency,Hit,Temp,Hum 
1480312815.7,286046919.6,N,0.0,0.0
1480312835.5,286046916.6,N,0.0,0.0
1480312855.3,286046916.7,N,0.0,0.0
1480312875.2,286046917.0,N,0.0,0.0
1480312895.0,286046916.8,N,0.0,0.0
1480312895.9,286046916.8,N,0.0,0.0
1480312915.8,286046917.8,N,0.0,0.0
1480312935.6,286046915.3,N,0.0,0.0
1480312955.4,286046918.0,N,0.0,0.0
1480312975.3,286046915.1,N,0.0,0.0
1480312995.1,286046915.9,N,0.0,0.0
1480313015.8,286046913.4,N,0.0,0.0
1480313035.7,286046913.5,N,0.0,0.0
1480313055.5,286046911.7,N,0.0,0.0
1480313075.4,286046911.7,N,0.0,0.0
1480313095.2,286046914.8,N,0.0,0.0
1480313115.0,286046912.1,N,0.0,0.0
1480313115.9,286046912.1,N,0.0,0.0
1480313135.8,286046911.8,N,0.0,0.0
1480313155.6,286046911.8,N,0.0,0.0
1480313175.4,286046914.1,N,0.0,0.0
1480313195.3,286046914.7,N,0.0,0.0
1480313215.1,286046912.3,N,0.0,0.0
1480313235.9,286046912.9,N,0.0,0.0
1480313255.7,286046912.5,N,0.0,0.0
1480313275.5,286046912.9,N,0.0,0.0
1480313295.4,286046912.7,N,0.0,0.0
1480313315.2,286046913.0,N,0.0,0.0
1480313335.1,286046912.7,N,0.0,0.0
1480313336.0,286046912.7,N,0.0,0.0
1480313355.8,286046910.1,N,0.0,0.0
1480313375.6,286046910.6,N,0.0,0.0
1480313395.5,286046910.3,N,0.0,0.0
1480313415.3,286046910.8,N,0.0,0.0
1480313435.1,286046910.6,N,0.0,0.0
1480313455.9,286046910.4,N,0.0,0.0
1480313475.7,286046911.0,N,0.0,0.0
1480313495.6,286046910.7,N,0.0,0.0
1480313515.4,286046911.6,N,0.0,0.0
1480313535.2,286046911.6,N,0.0,0.0
1480313555.1,286046911.6,N,0.0,0.0
1480313556.0,286046911.6,N,0.0,0.0
1480313575.8,286046908.6,N,0.0,0.0
1480313595.7,286046911.4,N,0.0,0.0
1480313615.5,286046911.0,N,0.0,0.0
1480313635.3,286046911.4,N,0.0,0.0
1480313655.2,286046908.5,N,0.0,0.0
1480313675.9,286046911.6,N,0.0,0.0
1480313695.7,286046908.8,N,0.0,0.0
1480313715.6,286046909.9,N,0.0,0.0
1480313735.4,286046907.1,N,0.0,0.0
1480313755.3,286046907.2,N,0.0,0.0
1480313775.1,286046908.1,N,0.0,0.0
1480313776.0,286046908.1,N,0.0,0.0
1480313795.8,286046908.2,N,0.0,0.0
1480313815.7,286046909.9,N,0.0,0.0
1480313835.5,286046909.5,N,0.0,0.0
1480313855.3,286046909.8,N,0.0,0.0
1480313875.2,286046906.9,N,0.0,0.0
1480313895.0,286046906.9,N,0.0,0.0
1480313895.9,286046906.9,N,0.0,0.0
1480313915.8,286046907.3,N,0.0,0.0
1480313935.6,286046907.2,N,0.0,0.0
1480313955.4,286046907.8,N,0.0,0.0
1480313975.3,286046907.9,N,0.0,0.0
1480313995.1,286046908.4,N,0.0,0.0
1480314015.8,286046905.5,N,0.0,0.0
1480314035.7,286046905.8,N,0.0,0.0
1480314055.5,286046906.0,N,0.0,0.0
1480314075.4,286046905.3,N,0.0,0.0
1480314095.2,286046907.7,N,0.0,0.0
1480314115.0,286046907.3,N,0.0,0.0
1480314115.9,286046907.3,N,0.0,0.0
1480314135.8,286046907.2,N,0.0,0.0
1480314155.6,286046907.2,N,0.0,0.0
1480314175.5,286046907.6,N,0.0,0.0
1480314195.3,286046907.6,N,0.0,0.0
1480314215.1,286046907.5,N,0.0,0.0
1480314235.9,286046907.6,N,0.0,0.0
1480314255.7,286046908.0,N,0.0,0.0
1480314275.5,286046907.9,N,0.0,0.0
1480314295.4,286046908.4,N,0.0,0.0
1480314315.2,286046907.2,N,0.0,0.0
1480314335.1,286046907.2,N,0.0,0.0
1480314336.0,286046907.2,N,0.0,0.0
1480314355.8,286046907.6,N,0.0,0.0
1480314375.6,286046907.2,N,0.0,0.0
1480314395.5,286046907.1,N,0.0,0.0
1480314415.3,286046907.7,N,0.0,0.0
1480314435.2,286046905.8,N,0.0,0.0
1480314455.9,286046906.3,N,0.0,0.0
1480314475.7,286046903.7,N,0.0,0.0
1480314495.6,286046904.2,N,0.0,0.0
1480314515.4,286046904.1,N,0.0,0.0
1480314535.2,286046904.2,N,0.0,0.0
1480314555.1,286046906.7,N,0.0,0.0
1480314556.0,286046906.7,N,0.0,0.0
1480314575.8,286046903.9,N,0.0,0.0
1480314595.7,286046904.5,N,0.0,0.0
1480314615.5,286046905.1,N,0.0,0.0
1480314635.3,286046902.4,N,0.0,0.0
1480314655.2,286046902.5,N,0.0,0.0
1480314675.0,286046904.6,N,0.0,0.0
1480314675.9,286046904.6,N,0.0,0.0
1480314695.8,286046904.4,N,0.0,0.0
1480314715.6,286046904.4,N,0.0,0.0
1480314735.4,286046904.3,N,0.0,0.0
1480314755.3,286046903.8,N,0.0,0.0
1480314775.1,286046906.8,N,0.0,0.0
1480314795.8,286046903.8,N,0.0,0.0
1480314815.7,286046904.3,N,0.0,0.0
1480314835.5,286046905.0,N,0.0,0.0
1480314855.4,286046902.2,N,0.0,0.0
1480314875.2,286046903.6,N,0.0,0.0
1480314895.0,286046900.7,N,0.0,0.0
1480314895.9,286046900.7,N,0.0,0.0
1480314915.8,286046901.0,N,0.0,0.0
1480314935.6,286046901.1,N,0.0,0.0
1480314955.4,286046901.6,N,0.0,0.0
1480314975.3,286046901.2,N,0.0,0.0
1480314995.1,286046901.4,N,0.0,0.0
1480315015.9,286046900.9,N,0.0,0.0
1480315035.7,286046903.4,N,0.0,0.0
1480315055.5,286046903.5,N,0.0,0.0
1480315075.4,286046901.2,N,0.0,0.0
1480315095.2,286046901.2,N,0.0,0.0
1480315115.1,286046900.8,N,0.0,0.0
1480315116.0,286046900.8,N,0.0,0.0
1480315135.8,286046901.4,N,0.0,0.0
1480315155.6,286046901.9,N,0.0,0.0
1480315175.5,286046898.9,N,0.0,0.0
1480315195.3,286046899.2,N,0.0,0.0
1480315215.1,286046900.2,N,0.0,0.0
1480315235.9,286046900.2,N,0.0,0.0
1480315255.7,286046897.8,N,0.0,0.0
1480315275.6,286046897.7,N,0.0,0.0
1480315295.4,286046897.5,N,0.0,0.0
1480315315.2,286046897.5,N,0.0,0.0
1480315335.1,286046898.0,N,0.0,0.0
1480315336.0,286046898.0,N,0.0,0.0
1480315355.8,286046897.6,N,0.0,0.0
1480315375.7,286046898.6,N,0.0,0.0
1480315395.5,286046895.8,N,0.0,0.0
1480315415.3,286046895.9,N,0.0,0.0
1480315435.2,286046896.2,N,0.0,0.0
1480315455.0,286046898.5,N,0.0,0.0
1480315455.9,286046898.5,N,0.0,0.0
1480315475.8,286046898.2,N,0.0,0.0
1480315495.6,286046897.9,N,0.0,0.0
1480315515.4,286046898.2,N,0.0,0.0
1480315535.3,286046898.0,N,0.0,0.0
1480315555.1,286046897.5,N,0.0,0.0
1480315575.8,286046897.7,N,0.0,0.0
1480315595.7,286046897.9,N,0.0,0.0
1480315615.5,286046898.5,N,0.0,0.0
1480315635.4,286046898.2,N,0.0,0.0
1480315655.2,286046898.8,N,0.0,0.0
1480315675.0,286046898.8,N,0.0,0.0
1480315675.9,286046898.8,N,0.0,0.0
1480315695.8,286046898.1,N,0.0,0.0
1480315715.6,286046897.8,N,0.0,0.0
1480315735.5,286046899.9,N,0.0,0.0
1480315755.3,286046897.8,N,0.0,0.0
1480315775.1,286046898.8,N,0.0,0.0
1480315795.9,286046898.8,N,0.0,0.0
1480315815.7,286046898.8,N,0.0,0.0
1480315835.5,286046895.9,N,0.0,0.0
1480315855.4,286046894.2,N,0.0,0.0
1480315875.2,286046894.5,N,0.0,0.0
1480315895.1,286046894.6,N,0.0,0.0
1480315896.0,286046894.6,N,0.0,0.0
1480315915.8,286046894.9,N,0.0,0.0
1480315935.6,286046895.5,N,0.0,0.0
1480315955.5,286046892.6,N,0.0,0.0
1480315975.3,286046892.9,N,0.0,0.0
1480315995.1,286046895.2,N,0.0,0.0
1480316015.9,286046892.9,N,0.0,0.0
1480316035.7,286046893.0,N,0.0,0.0
1480316055.6,286046893.2,N,0.0,0.0
1480316075.4,286046892.7,N,0.0,0.0
1480316095.2,286046895.5,N,0.0,0.0
1480316115.1,286046894.8,N,0.0,0.0
1480316116.0,286046894.8,N,0.0,0.0
1480316135.8,286046895.0,N,0.0,0.0
1480316155.7,286046895.1,N,0.0,0.0
1480316175.5,286046895.3,N,0.0,0.0
1480316195.3,286046895.3,N,0.0,0.0
1480316215.2,286046894.9,N,0.0,0.0
1480316235.9,286046894.9,N,0.0,0.0
1480316255.7,286046895.1,N,0.0,0.0
1480316275.6,286046892.5,N,0.0,0.0
1480316295.4,286046892.5,N,0.0,0.0
1480316315.3,286046892.7,N,0.0,0.0
1480316335.1,286046893.6,N,0.0,0.0
1480316336.0,286046893.6,N,0.0,0.0
1480316355.8,286046893.1,N,0.0,0.0
1480316375.7,286046893.9,N,0.0,0.0
1480316395.5,286046890.9,N,0.0,0.0
